Weather History for Worland, WY

Change the Weather History Date:

Friday, March 29, 2013

  Actual Average Record
Temperature  
Mean Temperature 50 °F 41 °F  
Max Temperature 64 °F 55 °F 79 °F (1986)
Min Temperature 35 °F 27 °F -3 °F (1987)
Degree Days  
Heating Degree Days 15 24  
Month to date heating degree days 836 837  
Since 1 July heating degree days 6418 6838  
Cooling Degree Days 0 0  
Month to date cooling degree days 0 0  
Year to date cooling degree days 0 0  
Moisture  
Dew Point 27 °F    
Average Humidity 51    
Maximum Humidity 82    
Minimum Humidity 19    
Precipitation  
Precipitation 0.00 in 0.01 in 0.47 in (1998)
Month to date precipitation 0.10 0.42  
Year to date precipitation 0.49 0.84  
Sea Level Pressure  
Sea Level Pressure 30.05 in    
Wind  
Wind Speed 6 mph (NW)    
Max Wind Speed 29 mph    
Max Gust Speed 32 mph    
Visibility 10 miles    
Events      
T = Trace of Precipitation, MM = Missing Value Source: NWS Daily Summary

Daily Weather History Graph

Daily Weather History Graph

Search for Another Location

Airport:

Trip Planner

Search our weather history database for the weather conditions in past years. The results will help you decide how hot, cold, wet, or windy it might be!

Date:

Astronomy

Mar. 29, 2013 Rise Set
Actual Time 6:58 AM MDT 7:35 PM MDT
Civil Twilight 6:29 AM MDT 8:04 PM MDT
Nautical Twilight 5:54 AM MDT 8:39 PM MDT
Astronomical Twilight 5:19 AM MDT 9:14 PM MDT
Moon 10:46 PM MDT (3/29) 8:03 AM MDT (3/29)
Length of Visible Light 13h 35m
Length of Day
12h 37m
Waning Gibbous, 93% of the Moon is Illuminated
Mar 29
Waning Gibbous
Apr 2
Last Quarter
Apr 10
New
Apr 18
First Quarter
Apr 25
Full

Hourly Weather History & Observations

Time (MDT) Temp. Windchill Dew Point Humidity Pressure Visibility Wind Dir Wind Speed Gust Speed Precip Events Conditions
12:53 AM 39.9 °F - 23.0 °F 51% 30.01 in 10.0 mi Calm Calm - N/A   Scattered Clouds
1:53 AM 39.0 °F 36.8 °F 25.0 °F 57% 30.01 in 10.0 mi SW 3.5 mph - N/A   Clear
2:53 AM 37.0 °F 34.5 °F 25.0 °F 62% 30.01 in 10.0 mi SSW 3.5 mph - N/A   Clear
3:53 AM 37.9 °F 34.4 °F 24.1 °F 57% 30.01 in 10.0 mi SW 4.6 mph - N/A   Overcast
4:53 AM 36.0 °F - 24.1 °F 62% 30.02 in 10.0 mi Calm Calm - N/A   Partly Cloudy
5:53 AM 36.0 °F 29.6 °F 26.1 °F 67% 30.04 in 10.0 mi South 8.1 mph - N/A   Clear
6:53 AM 36.0 °F 30.3 °F 26.1 °F 67% 30.06 in 10.0 mi South 6.9 mph - N/A   Clear
7:53 AM 39.9 °F 36.7 °F 27.0 °F 60% 30.08 in 10.0 mi SSE 4.6 mph - N/A   Clear
8:53 AM 43.0 °F - 27.0 °F 53% 30.09 in 10.0 mi Calm Calm - N/A   Clear
9:53 AM 48.0 °F - 26.1 °F 42% 30.08 in 10.0 mi Calm Calm - N/A   Clear
10:53 AM 55.0 °F - 23.0 °F 29% 30.06 in 10.0 mi Calm Calm - N/A   Partly Cloudy
11:53 AM 57.0 °F - 19.9 °F 24% 30.06 in 10.0 mi Calm Calm - N/A   Mostly Cloudy
12:53 PM 59.0 °F - 18.0 °F 20% 30.05 in 10.0 mi West 3.5 mph - N/A   Mostly Cloudy
1:53 PM 61.0 °F - 19.9 °F 21% 30.03 in 10.0 mi NE 8.1 mph - N/A   Mostly Cloudy
2:53 PM 62.1 °F - 21.9 °F 21% 30.01 in 10.0 mi NNE 8.1 mph - N/A   Scattered Clouds
3:53 PM 62.1 °F - 21.9 °F 21% 30.01 in 10.0 mi North 15.0 mph - N/A   Mostly Cloudy
4:53 PM 57.0 °F - 30.0 °F 36% 30.05 in 10.0 mi NNW 19.6 mph 32.2 mph N/A   Mostly Cloudy
5:53 PM 60.1 °F - 28.9 °F 31% 30.04 in 10.0 mi North 9.2 mph - N/A   Clear
6:53 PM 57.9 °F - 28.9 °F 33% 30.04 in 10.0 mi North 3.5 mph - N/A   Clear
7:53 PM 50.0 °F - 28.9 °F 44% 30.05 in 10.0 mi Calm Calm - N/A   Overcast
8:53 PM 48.9 °F - 30.9 °F 50% 30.10 in 10.0 mi North 21.9 mph 28.8 mph N/A   Mostly Cloudy
9:53 PM 45.0 °F 41.8 °F 37.9 °F 76% 30.11 in 10.0 mi NNE 5.8 mph - N/A   Partly Cloudy
10:53 PM 42.1 °F - 37.0 °F 82% 30.11 in 10.0 mi Calm Calm - N/A   Partly Cloudy
11:53 PM 42.1 °F 37.7 °F 36.0 °F 79% 30.11 in 10.0 mi SSW 6.9 mph - N/A   Overcast